Wausau, WI

12:59 PM CDT on June 26, 2017 (GMT -0500)
Wausau Downtown

Weather History for KAUW - December, 2011

Change the Weather History Date:

Wednesday, December 28, 2011

  Actual Average Record
Temperature  
Mean Temperature 16 °F 16 °F  
Max Temperature 21 °F 24 °F 48 °F (1984)
Min Temperature 10 °F 8 °F -23 °F (1924)
Degree Days  
Heating Degree Days 49 49  
Month to date heating degree days 1110 1279  
Since 1 July heating degree days 2697 3138  
Cooling Degree Days 0 0  
Month to date cooling degree days 0 0  
Year to date cooling degree days 558 407  
Moisture  
Dew Point 8 °F    
Average Humidity 71    
Maximum Humidity 84    
Minimum Humidity 57    
Precipitation  
Precipitation T in 0.04 in 0.66 in (1948)
Month to date precipitation 1.38 1.25  
Year to date precipitation 35.39 32.30  
Snow  
Snow T in 0.40 in 6.20 in (2015)
Month to date snowfall 6.9 12.5  
Since 1 July snowfall 10.6 20.8  
Snow Depth T in    
Sea Level Pressure  
Sea Level Pressure 29.97 in    
Wind  
Wind Speed 6 mph (SE)    
Max Wind Speed 14 mph    
Max Gust Speed 16 mph    
Visibility 10 miles    
Events      
T = Trace of Precipitation, MM = Missing Value Source: NWS Daily Summary

Daily Weather History Graph

Daily Weather History Graph

Search for Another Location

Airport or City:

Trip Planner

Search our weather history database for the weather conditions in past years. The results will help you decide how hot, cold, wet, or windy it might be!

Date:

Astronomy

Dec. 28, 2011 Rise Set
Actual Time 7:35 AM CST 4:24 PM CST
Civil Twilight 7:02 AM CST 4:57 PM CST
Nautical Twilight 6:25 AM CST 5:35 PM CST
Astronomical Twilight 5:49 AM CST 6:10 PM CST
Moon 9:51 AM CST (12/28) 9:12 PM CST (12/28)
Length of Visible Light 9h 55m
Length of Day
8h 48m
Waxing Crescent, 18% of the Moon is Illuminated
Dec 28
Waxing Crescent
Jan 1
First Quarter
Jan 9
Full
Jan 16
Last Quarter
Jan 23
New

Hourly Weather History & Observations

Time (CST) Temp. Windchill Dew Point Humidity Pressure Visibility Wind Dir Wind Speed Gust Speed Precip Events Conditions
12:54 AM 12.9 °F 5.2 °F 5.0 °F 71% 30.05 in 10.0 mi WNW 4.6 mph - N/A   Clear
1:54 AM 12.9 °F 6.9 °F 5.0 °F 71% 30.06 in 10.0 mi NW 3.5 mph - N/A   Clear
2:54 AM 12.9 °F 6.9 °F 6.1 °F 74% 30.06 in 10.0 mi WNW 3.5 mph - N/A   Overcast
3:54 AM 12.9 °F 6.9 °F 6.1 °F 74% 30.06 in 10.0 mi WNW 3.5 mph - N/A   Mostly Cloudy
4:54 AM 12.9 °F - 7.0 °F 77% 30.04 in 10.0 mi Calm Calm - N/A   Mostly Cloudy
5:54 AM 12.9 °F - 6.1 °F 74% 30.05 in 10.0 mi Calm Calm - N/A   Partly Cloudy
6:54 AM 12.0 °F - 6.1 °F 77% 30.05 in 10.0 mi Calm Calm - N/A   Partly Cloudy
7:54 AM 10.0 °F 3.6 °F 6.1 °F 84% 30.06 in 10.0 mi East 3.5 mph - N/A   Clear
8:54 AM 12.9 °F 5.2 °F 8.1 °F 81% 30.07 in 10.0 mi SSE 4.6 mph - N/A   Overcast
9:54 AM 14.0 °F 3.9 °F 7.0 °F 74% 30.07 in 10.0 mi SE 6.9 mph - N/A   Mostly Cloudy
10:54 AM 16.0 °F 5.3 °F 8.1 °F 71% 30.05 in 10.0 mi SE 8.1 mph - N/A   Overcast
11:54 AM 18.0 °F 7.7 °F 8.1 °F 65% 30.01 in 10.0 mi South 8.1 mph - N/A   Overcast
12:54 PM 19.0 °F 10.0 °F 8.1 °F 62% 29.98 in 10.0 mi South 6.9 mph - N/A   Overcast
1:54 PM 19.9 °F 9.3 °F 8.1 °F 60% 29.94 in 10.0 mi SE 9.2 mph - N/A   Overcast
2:54 PM 21.0 °F 11.4 °F 8.1 °F 57% 29.93 in 10.0 mi SE 8.1 mph - N/A   Overcast
4:54 PM 19.9 °F 10.1 °F 8.1 °F 60% 29.91 in 10.0 mi SE 8.1 mph - N/A   Overcast
5:54 PM 19.9 °F 8.6 °F 8.1 °F 60% 29.91 in 10.0 mi SSE 10.4 mph - N/A   Overcast
6:54 PM 18.0 °F 7.7 °F 9.0 °F 68% 29.89 in 10.0 mi SSE 8.1 mph - N/A   Clear
7:54 PM 17.1 °F 8.7 °F 9.0 °F 71% 29.87 in 10.0 mi ESE 5.8 mph - N/A   Clear
8:54 PM 18.0 °F 9.8 °F 10.0 °F 71% 29.83 in 10.0 mi ESE 5.8 mph - N/A   Clear
9:54 PM 19.9 °F 10.1 °F 12.0 °F 71% 29.81 in 10.0 mi SSE 8.1 mph - N/A   Clear
10:54 PM 19.9 °F 11.1 °F 12.9 °F 74% 29.78 in 10.0 mi SE 6.9 mph - N/A   Mostly Cloudy
11:54 PM 19.9 °F 11.1 °F 14.0 °F 78% 29.74 in 10.0 mi SE 6.9 mph - N/A   Overcast